Location: Muenchen
(48.1800°N, 11.5800°E)
Time: 15:03:17
(UTC+01:00)

ISS - Visible Passes

Search period start: 21 November 2017 00:00
Search period end: 01 December 2017 00:00
Orbit: 402 x 407 km, 51.6° (Epoch: 21 November)

Date Brightness Start Highest point End Pass type
(mag) Time Alt. Az. Time Alt. Az. Time Alt. Az.
27 Nov -0.9 19:07:27 10° SW 19:07:53 13° SW 19:07:53 13° SW visible
28 Nov -2.2 18:15:36 10° SSW 18:17:53 24° SSE 18:17:53 24° SSE visible
29 Nov -1.7 17:24:12 10° S 17:26:09 15° SE 17:27:47 11° ESE visible
29 Nov -1.7 18:58:54 10° WSW 19:00:27 25° SW 19:00:27 25° SW visible
30 Nov -3.4 18:06:41 10° SW 18:09:51 47° SSE 18:10:17 43° ESE visible
